FW3054 Weather Reports


time (UTC)temp
C
wind
direction
speed
KPH
gust
KPH
rain 1hr
cm
rain 24hr
cm
rain mn
cm
humidity
%
barometer
mb
20260504030546 9 0.0 1.6 0.00 0.00 0.00 68 1017.4
20260504025521 10 0.0 1.6 0.00 0.00 0.00 67 1017.5
20260504024520 10 0.0 0.0 0.00 0.00 0.00 66 1017.8
20260504023521 10 0.0 1.6 0.00 0.00 0.00 66 1017.7
20260504022521 10 0.0 1.6 0.00 0.00 0.00 66 1017.6
20260504021520 10 0.0 0.0 0.00 0.00 0.00 65 1017.8
20260504020546 10 0.0 0.0 0.00 0.00 0.00 64 1017.6
20260504015520 11 0.0 0.0 0.00 0.00 0.00 62 1017.3
20260504014546 11 0.0 0.0 0.00 0.00 0.00 61 1017.3
20260504013546 11 0.0 1.6 0.00 0.00 0.00 60 1016.9
20260504012520 11 0.0 0.0 0.00 0.00 0.00 59 1016.9
20260504011521 11 0.0 1.6 0.00 0.00 0.00 59 1016.8
20260504010520 12 0.0 0.0 0.00 0.00 0.00 58 1016.6
20260504005521 12 0.0 0.0 0.00 0.00 0.00 57 1016.6
20260504004546 12 0.0 1.6 0.00 0.00 0.00 56 1016.5
20260504003520 13 0.0 0.0 0.00 0.00 0.00 53 1016.5
20260504002546 13 0.0 0.0 0.00 0.00 0.00 51 1016.4
20260504001521 14 0.0 0.0 0.00 0.00 0.00 50 1016.5
20260504000545 15 0.0 0.0 0.00 0.00 0.00 49 1016.4
20260503235520 15 0.0 1.6 0.00 0.00 0.00 47 1016.4
20260503234545 15 23 1.6 3.2 0.00 0.00 0.00 45 1016.4
20260503233521 16 23 1.6 4.8 0.00 0.00 0.00 44 1016.3
20260503232520 16 23 1.6 4.8 0.00 0.00 0.00 43 1016.3
20260503231520 16 0.0 3.2 0.00 0.00 0.00 42 1016.1
20260503230520 16 0.0 4.8 0.00 0.00 0.00 42 1016.2
20260503225520 17 23 1.6 3.2 0.00 0.00 0.00 41 1016.1
20260503224520 17 23 1.6 4.8 0.00 0.00 0.00 40 1016.2
20260503223522 17 0.0 0.0 0.00 0.00 0.00 41 1016.2
20260503222520 17 23 1.6 3.2 0.00 0.00 0.00 39 1016.2
20260503221522 17 0.0 1.6 0.00 0.00 0.00 39 1016.3
20260503220520 17 0 1.6 6.4 0.00 0.00 0.00 37 1016.3
20260503215522 17 0.0 3.2 0.00 0.00 0.00 39 1016.4
20260503214522 18 0.0 1.6 0.00 0.00 0.00 38 1016.4
20260503213522 18 0.0 1.6 0.00 0.00 0.00 37 1016.5
20260503212522 18 23 1.6 3.2 0.00 0.00 0.00 37 1016.5
20260503211522 18 0 1.6 6.4 0.00 0.00 0.00 35 1016.7
20260503210522 18 0 1.6 6.4 0.00 0.00 0.00 34 1016.9
20260503205522 20 0 3.2 6.4 0.00 0.00 0.00 33 1017.1
20260503204547 20 23 3.2 6.4 0.00 0.00 0.00 32 1017.4
20260503203522 20 135 1.6 3.2 0.00 0.00 0.00 32 1017.5
20260503202522 20 0 1.6 4.8 0.00 0.00 0.00 33 1017.5
20260503201613 20 113 1.6 3.2 0.00 0.00 0.00 34 1017.8
20260503200522 20 0.0 1.6 0.00 0.00 0.00 34 1018.0
20260503195547 20 135 1.6 3.2 0.00 0.00 0.00 33 1018.3
20260503194547 20 0.0 1.6 0.00 0.00 0.00 34 1018.2
20260503193547 19 0.0 1.6 0.00 0.00 0.00 36 1018.2
20260503192522 19 23 3.2 6.4 0.00 0.00 0.00 33 1018.4
20260503191547 19 23 1.6 4.8 0.00 0.00 0.00 35 1018.6
20260503190523 19 0 1.6 6.4 0.00 0.00 0.00 35 1018.7
20260503185522 18 23 1.6 9.7 0.00 0.00 0.00 36 1018.7
20260503184522 19 23 1.6 3.2 0.00 0.00 0.00 34 1018.9
20260503183522 19 135 1.6 3.2 0.00 0.00 0.00 36 1019.0
20260503182522 17 0 1.6 3.2 0.00 0.00 0.00 37 1018.9
20260503181522 17 23 4.8 11.3 0.00 0.00 0.00 37 1019.0
20260503180522 17 23 1.6 6.4 0.00 0.00 0.00 37 1019.2
20260503175522 17 23 1.6 6.4 0.00 0.00 0.00 37 1019.4
20260503174547 16 23 3.2 8.0 0.00 0.00 0.00 37 1019.3
20260503173522 16 23 3.2 9.7 0.00 0.00 0.00 40 1019.4
20260503172522 16 0 4.8 8.0 0.00 0.00 0.00 38 1019.6
20260503171547 17 23 1.6 6.4 0.00 0.00 0.00 38 1019.9
20260503170547 17 23 1.6 4.8 0.00 0.00 0.00 40 1020.1
20260503150522 11 0.0 1.6 0.00 0.00 0.00 52 1020.9
20260503130521 7 0.0 3.2 0.00 0.00 0.00 72 1020.4
20260503110546 3 0.0 0.0 0.00 0.00 0.00 86 1018.9
20260503081546 4 0.0 0.0 0.00 0.00 0.00 83 1017.3
20260503080521 4 0.0 0.0 0.00 0.00 0.00 82 1017.4
20260503072521 5 0.0 1.6 0.00 0.00 0.00 80 1017.0
20260503071521 5 0.0 0.0 0.00 0.00 0.00 80 1017.1
20260503070521 5 0.0 0.0 0.00 0.00 0.00 80 1016.9
20260503054521 6 0.0 0.0 0.00 0.00 0.00 75 1016.7
20260503053546 6 0.0 1.6 0.00 0.00 0.00 75 1016.7
20260503052546 6 0.0 0.0 0.00 0.00 0.00 74 1016.9
20260503051546 6 0.0 1.6 0.00 0.00 0.00 74 1016.7
20260503050546 6 0.0 0.0 0.00 0.00 0.00 73 1016.5
20260503045520 6 0.0 1.6 0.00 0.00 0.00 73 1016.6
20260503044520 6 0.0 0.0 0.00 0.00 0.00 72 1016.6
20260503043520 6 0.0 1.6 0.00 0.00 0.00 72 1016.3
20260503042521 6 0.0 0.0 0.00 0.00 0.00 72 1016.4
20260503041520 6 0.0 1.6 0.00 0.00 0.00 71 1016.3
20260503040520 7 0.0 0.0 0.00 0.00 0.00 70 1016.0
20260503035521 7 0.0 1.6 0.00 0.00 0.00 69 1015.8
20260503034521 7 0.0 1.6 0.00 0.00 0.00 68 1015.7
20260503033520 7 0.0 1.6 0.00 0.00 0.00 66 1015.5
20260503032521 7 0.0 0.0 0.00 0.00 0.00 65 1015.5
20260503031521 8 0.0 0.0 0.00 0.00 0.00 64 1015.3